Погода в Горине

Погода в Горине : погода сейчас, прогноз погоды и архив. Всё, что Вы хотите узнать о погоде в Горине!

Хотите узнать прогноз погоды в Горине? Тогда Вам сюда: Погода в Горине

Поиск расширенной информации на нашем сайте:

Другие новости

Новости СМИ2

Главная страница сайта

Новости сайта

02.10.2013

Напоминаем, что на нашем новом сайте вы можете получить высокодетализированные прогнозы погоды по пунктам России, СНГ и мира (включающие важные для авиации метеовеличины, такие как направление и скорость ветра, видимость, явления погоды, количество и форма облачности, нижняя и верхняя граница облачности), а также ознакомиться с разнообразными материалами по авиационной метеорологии и подборкой полезных ссылок на эту тему.

Сайт Метеоцентр.Азия посвящён разработке технологий оптимизации авиаметеорологического обслуживания, включая проектирование и перспективное создание нескольких автоматизированных авиаметеорологических систем:
- система выпуска высокодетальных прогностических карт явлений погоды для нижнего воздушного пространства по России и ближнему зарубежью;
- система верификации прогнозов TAF (выпускаемых синоптиками официальных АМСГ РФ и ближнего зарубежья) и AUTOTAF (выпускаемых сайтом Метеоцентр.Азия) - выявление ошибок, онлайн-сопоставление с фактической погодой METAR, автоматическое внесение коррективов в прогнозы при резком отклонении фактической погоды от прогноза, подсчёт оправдываемости прогнозов по элементам и в целом;
- система обработки, анализа и отображения авиаметеорологической информации для применения провайдерами метеорологической информации.

Рекомендуем: обратите внимание у метро Октябрьская описание помещений на сайте

Погода в Горине - сегодня

Время (UTC), дата Ветер
(°,м/с) 
Видим.   Явления Облачность Т
(°С)
Тd
(°С)
f(%) Тe
(°С)
Pmin
(гПа)
dP
(гПа)
Po
(мм)
O2
(г/м3)
Тmin Tmax R s Состояние
почвы
06 23.02.17 330 (СЗ) 20000 м    ясно 
-8.8 -20.4 39 -10  1007  -2.2  746  312           
09 23.02.17 250 (З) 20000 м    ясно 
-16.4 -21.3 66 -17  1007.3  0.1  746  322    -8.6       
12 23.02.17 240 (ЮЗ) 20000 м    ясно 
-20.5 -22.7 83 -21  1008.2  0.6  747  327           
15 23.02.17 тихо ()   20000 м    ясно 
-24.7 -27.4 78 -25  1008.8  0.4  747  333           
18 23.02.17 тихо ()   20000 м    ясно 
-26.6 -29.6 76 -27  1008.9  747  335           
21 23.02.17 тихо ()   20000 м    3/0 верхняя 
[Ci fib]
-26.7 -29.6 76 -27  1008.5  -0.4  747  335  -26.9      38  равномерный
сухой снег
100% 
00 24.02.17 060 (СВ) 20000 м    3/0 верхняя 
[Ci sp]
-22.2 -25.1 77 -23  1007.8  -0.4  746  329  -27.8         
03 24.02.17 090 (В) 20000 м    4/0 верхняя 
[Ci sp]
-13 -21.1 51 -13  1006.1  -1.3  746  317           
06 24.02.17 080 (В) 20000 м    10/0 верхняя 
[Cs]
-8.6 -17.1 50 -10  1004.6  -1.2  745  311           
09 24.02.17 150 (ЮВ) 20000 м    8/0 верхняя 
[Ci sp]
-13.4 -19.3 61 -16  1005  0.1  745  317    -8.4       
12 24.02.17 тихо ()   20000 м    ясно 
-19.1 -21.2 83 -19  1004.9  -0.3  744  324           
15 24.02.17 320 (СЗ) 20000 м    ясно 
-22.1 -24.5 81 -22  1004.1  -1  744  328           
18 24.02.17 300 (СЗ) 10 км  слаб. снег  10/0 средняя 
[As op]
-16.6 -18.5 85 -19  1003.9  0.1  744  321           
21 24.02.17 310 (СЗ) 2000 м  слаб. снег  10/0 средняя 
[As op]
-17.5 -19.6 84 -23  1005.4  1.3  745  322  -22.2    39  равномерный
сухой снег
100% 
00 25.02.17 310 (СЗ) 4000 м  слаб. снег  10/10 600 м 
[Ns]
-17.4 -19.6 83 -22  1007.6  2.2  746  323           
03 25.02.17 310 (СЗ) 4000 м  слаб. снег  10/10 600 м 
[As trans]
-16.4 -18.9 81 -20  1009.3  1.8  748  322           
06 25.02.17 310 (СЗ) 4000 м  слаб. снег  10/6 600 м средняя 
[Frnb|As trans]
-15.6 -18.1 81 -19  1011  1.7  749  322           
09 25.02.17 280 (З) 20000 м  {снег}  10/0 средняя 
[As op]
-15.8 -20.3 68 -18  1013.6  2.5  751  323    -15.4     
12 25.02.17 270 (З) 20000 м  {снег}  3/0 верхняя 
[Ci sp]
-17.2 -23.6 58 -20  1015.2  1.5  752  325           
15 25.02.17 260 (З) 20000 м    ясно 
-20 -25.7 60 -23  1016.4  1.1  753  329           
18 25.02.17 тихо ()   20000 м    ясно 
-27 -29.5 79 -27  1017.3  0.5  753  339           
21 25.02.17 тихо ()   20000 м    ясно 
-29.5 -32.6 74 -30  1018.5  754  343  -29.6      39  равномерный
сухой снег
100% 
00 26.02.17 010 (С) 20000 м    8/0 верхняя 
[Ci fib]
-21.8 -25 75 -22  1019.7  1.6  755  332  -30.2         
03 26.02.17 060 (СВ) 20000 м    3/0 верхняя 
[Ci fib]
-14.1 -23.7 44 -14  1018.9  -0.5  755  322           
06 26.02.17 080 (В) 20000 м    ясно 
-10.1 -20.7 42 -12  1018.2  -0.5  755  317           
Время (UTC), дата Ветер
(°,м/с) 
Видим.   Явления Облачность Т
(°С)
Тd
(°С)
f(%) Тe
(°С)
Pmin
(гПа)
dP
(гПа)
Po
(мм)
O2
(г/м3)
Тmin Tmax R s Состояние
почвы

Для получения пояснительной информации подведите курсор к названию столбца.

ПОГОДА в Горине - архив

Всё, что Вы хотите узнать о погоде в Горине - удобно и подробно!

Выберите нужную дату (начиная с 1 января 2015* года) и нажмите кнопку "Найти".
Будут отображены архивные сводки погоды по пункту Горин, начиная с указанной даты.


Отображать данные в формате CSV (для использования в таблицах Excel)


Внимание! Наш архив погоды предназначен исключительно для личного некоммерческого использования в познавательных целях. Если Вам необходимы официальные справки о состоянии погоды (для производственных, юридических, коммерческих и т.п. целей), обращайтесь в органы Росгидромета.

*Примечание: данная дата относится к архиву по метеостанциям СССР (Россия, СНГ, Балтия).
Архив по метеостанциям Зарубежной Европы и Азии (кроме Китая) хранится 10 дней, по другим регионам земного шара (Китай, Африка, Америка, Австралия, Океания) - 1 день.

Горин - район местоположения метеостанции


Название, широта, долгота, высота метеостанции:
Горин 51.2°ш. 136.8°д. 92 м над ур. моря [Российская Федерация]

Дополнительная информация

В oтличие oт бoльшинства пoгoдных сайтoв мы публикуем пoдрoбную метеoинфoрмацию в детальнoм прoфессиoнальнoм фoрмате.

Характеристики температуры и влажнoсти вoздуха измеряются на высoте 2 м в тени вдали oт зданий и деревьев.
Скoрoсть ветра измеряется на высoте 10 м (на урoвне рoста челoвека скoрoсть ветра ниже в 1.5-2 раза). Если метеoстанция нахoдится в гoрoде или в лесу, тo скoрoсть ветра занижена на 2-4 м/с пo сравнению с oткрытым местoм. Скoрoсть ветра над акватoриями крупных рек и oзёр, а также на вершинах хoлмoв на 2-5 м/с выше, чем в oбычных услoвиях.
Атмoсфернoе давление в разных тoчках местнoсти мoжет значительнo oтличаться oт давления на метеoстанции, в зависимoсти oт услoвий рельефа (при пoдъёме на 10 м давление пoнижается примернo на 1 мм рт.ст.).